Location: G�ndlingen
(48.0142°N, 7.6396°E)
Time: 19:13:55
(UTC+00:00)

Helios 1B rocket - Pass Details

Date: 05 July 2020
Orbit: 574 x 584 km, 98.1° (Epoch: 12 August)

Event Time Altitude Azimuth Distance (km) Brightness Sun altitude
Rises 23:48:46 0° 17° (NNE) 2,816 7.4 -19.2°
Reaches altitude 10° 23:50:58 10° 22° (NNE) 1,909 6.2 -19.2°
Maximum altitude 23:55:02 55° 101° (E) 706 2.7 -19.2°
Enters shadow 23:56:03 42° 150° (SSE) 835 2.8 -19.2°
